カタログに戻る

SL-8 DEB *

運用中LEO
NORAD 18509·DEBRIS·🇷🇺 Russia

打ち上げ Jun 1, 1982 から Plesetsk Cosmodrome

Loading…

次のパス (今後24時間)

TLE

最新Source: Space-Track

元期: Sep 14, 2026, 14:40 UTC

1 18509U 82051E   26257.61180470  .00001314  00000-0  26231-3 0  9994
2 18509  74.0020 177.7651 0006806 188.8293 231.5306 14.62992191 90745

AllMySatでSL-8 DEB *をリアルタイム追跡

Download on the App Store